RYR7SJ EGFF-GCRR

Flight info

Callsign RYR7SJ
Flight time N/A
Altitude 35000
Route EXMOR N92 DAWLY N864 BHD DCT SALCO DCT IBISU DCT ERWAN DCT BALDA DCT ABUPI DCT DIGAL DCT DMT DCT NOKSO/N0464F370 DCT TAKAV DCT VEDOD UN857 TERTO
Aircraft B38M/M-SDE1FGHILORVWXY/HB1

Departure

Time 2026-05-08 13:24
Airport Cardiff International Airport (EGFF)

Arrival

Time N/A
Airport César Manrique-Lanzarote Airport (GCRR)
Time Latitude Longitude Altitude Speed Heading
2026-05-08 13:00 51.39806 -3.33937 224 ft 0 kts 83°
2026-05-08 13:15 51.39804 -3.33961 226 ft 4 kts 79°
2026-05-08 13:15 51.39798 -3.34002 224 ft 4 kts 71°
2026-05-08 13:15 51.39788 -3.34036 226 ft 3 kts 51°
2026-05-08 13:15 51.39776 -3.34052 226 ft 2 kts 14°
2026-05-08 13:16 51.39765 -3.34051 225 ft 2 kts 334°
2026-05-08 13:16 51.39756 -3.34040 225 ft 2 kts 309°
2026-05-08 13:16 51.39750 -3.34026 224 ft 0 kts 295°
2026-05-08 13:21 51.39752 -3.34033 224 ft 2 kts 295°
2026-05-08 13:22 51.39770 -3.34092 225 ft 10 kts 295°
2026-05-08 13:22 51.39815 -3.34242 225 ft 20 kts 296°
2026-05-08 13:22 51.39883 -3.34456 225 ft 23 kts 297°
2026-05-08 13:22 51.39958 -3.34685 225 ft 25 kts 298°
2026-05-08 13:23 51.40041 -3.34946 225 ft 28 kts 297°
2026-05-08 13:23 51.40129 -3.35225 222 ft 28 kts 296°
2026-05-08 13:23 51.40111 -3.35480 227 ft 25 kts 218°
2026-05-08 13:23 51.40000 -3.35406 221 ft 20 kts 116°
2026-05-08 13:24 51.39885 -3.35033 220 ft 71 kts 116°
2026-05-08 13:24 51.39688 -3.34406 224 ft 119 kts 116°
2026-05-08 13:24 51.39163 -3.32690 483 ft 165 kts 115°
2026-05-08 13:24 51.38650 -3.31020 1398 ft 168 kts 117°
2026-05-08 13:25 51.38135 -3.29322 2215 ft 172 kts 118°
2026-05-08 13:25 51.37553 -3.27593 2754 ft 182 kts 127°
2026-05-08 13:25 51.36753 -3.25916 3240 ft 197 kts 130°
2026-05-08 13:25 51.35867 -3.24113 3665 ft 217 kts 130°
2026-05-08 13:26 51.34752 -3.22332 4047 ft 239 kts 151°
2026-05-08 13:26 51.33122 -3.21609 4622 ft 253 kts 181°
2026-05-08 13:26 51.31401 -3.22308 4969 ft 259 kts 210°
2026-05-08 13:26 51.29973 -3.24088 4992 ft 260 kts 223°
2026-05-08 13:27 51.28927 -3.26445 5058 ft 263 kts 237°
2026-05-08 13:27 51.27656 -3.28442 5979 ft 258 kts 205°
2026-05-08 13:27 51.25896 -3.29005 6776 ft 264 kts 180°
2026-05-08 13:27 51.24058 -3.29192 7617 ft 265 kts 191°
2026-05-08 13:28 51.22241 -3.29765 8473 ft 269 kts 191°
2026-05-08 13:28 51.20392 -3.30344 9329 ft 271 kts 191°
2026-05-08 13:28 51.18555 -3.30913 10142 ft 274 kts 191°
2026-05-08 13:28 51.16650 -3.31501 10713 ft 286 kts 191°
2026-05-08 13:29 51.14635 -3.32127 11084 ft 303 kts 191°
2026-05-08 13:29 51.12494 -3.32793 11409 ft 322 kts 191°
2026-05-08 13:29 51.10228 -3.33496 11700 ft 340 kts 191°
2026-05-08 13:29 51.07851 -3.34231 12026 ft 354 kts 191°
2026-05-08 13:30 51.05419 -3.34979 12516 ft 363 kts 191°
2026-05-08 13:30 51.02905 -3.35743 13300 ft 364 kts 191°
2026-05-08 13:30 51.00429 -3.36494 13911 ft 369 kts 191°
2026-05-08 13:30 50.97895 -3.37262 14519 ft 372 kts 191°
2026-05-08 13:31 50.95331 -3.38036 15116 ft 376 kts 191°
2026-05-08 13:31 50.92752 -3.38816 15738 ft 379 kts 191°
2026-05-08 13:31 50.90148 -3.39601 16345 ft 383 kts 191°
2026-05-08 13:31 50.87518 -3.40393 16933 ft 386 kts 191°
2026-05-08 13:32 50.84825 -3.41203 17534 ft 390 kts 191°
2026-05-08 13:32 50.83053 -3.41735 17916 ft 393 kts 191°
2026-05-08 13:32 50.80346 -3.42425 18441 ft 396 kts 186°
2026-05-08 13:32 50.76692 -3.43016 19085 ft 400 kts 186°
2026-05-08 13:33 50.74817 -3.43337 19409 ft 403 kts 187°
2026-05-08 13:33 50.72022 -3.43825 19872 ft 406 kts 187°
2026-05-08 13:33 50.68277 -3.44486 20498 ft 410 kts 187°
2026-05-08 13:33 50.66359 -3.44826 20817 ft 412 kts 187°
2026-05-08 13:34 50.63497 -3.45332 21284 ft 415 kts 187°
2026-05-08 13:34 50.60617 -3.45841 21749 ft 418 kts 188°
2026-05-08 13:34 50.57755 -3.46343 22198 ft 421 kts 187°
2026-05-08 13:34 50.54827 -3.46839 22652 ft 424 kts 188°
2026-05-08 13:35 50.51884 -3.47338 23099 ft 426 kts 188°
2026-05-08 13:35 50.48923 -3.47839 23545 ft 429 kts 188°
2026-05-08 13:35 50.45942 -3.48343 23911 ft 432 kts 188°
2026-05-08 13:35 50.42946 -3.48849 24293 ft 433 kts 188°
2026-05-08 13:36 50.39937 -3.49306 24658 ft 436 kts 184°
2026-05-08 13:36 50.36895 -3.49432 25016 ft 439 kts 184°
2026-05-08 13:36 50.33837 -3.49576 25380 ft 441 kts 184°
2026-05-08 13:36 50.30758 -3.49743 25727 ft 443 kts 184°
2026-05-08 13:37 50.27676 -3.49916 26073 ft 445 kts 185°
2026-05-08 13:37 50.24573 -3.50092 26418 ft 447 kts 185°
2026-05-08 13:37 50.21461 -3.50269 26754 ft 449 kts 185°
2026-05-08 13:37 50.18329 -3.50447 27070 ft 451 kts 185°
2026-05-08 13:38 50.15188 -3.50626 27398 ft 453 kts 185°
2026-05-08 13:38 50.12024 -3.50805 27714 ft 455 kts 185°
2026-05-08 13:38 50.08854 -3.50985 28020 ft 457 kts 185°
2026-05-08 13:38 50.05665 -3.51165 28360 ft 458 kts 185°
2026-05-08 13:39 50.02482 -3.51345 28800 ft 457 kts 185°
2026-05-08 13:39 49.99309 -3.51524 29268 ft 455 kts 185°
2026-05-08 13:39 49.96153 -3.51702 29694 ft 454 kts 185°
2026-05-08 13:39 49.93003 -3.51880 30110 ft 454 kts 185°
2026-05-08 13:40 49.89876 -3.52055 30474 ft 452 kts 185°
2026-05-08 13:40 49.86731 -3.52232 30814 ft 452 kts 185°
2026-05-08 13:40 49.83592 -3.52408 31163 ft 451 kts 185°
2026-05-08 13:40 49.80455 -3.52583 31509 ft 450 kts 185°
2026-05-08 13:41 49.77323 -3.52759 31841 ft 449 kts 185°
2026-05-08 13:41 49.74207 -3.53010 32184 ft 446 kts 191°
2026-05-08 13:41 49.71257 -3.54137 32526 ft 440 kts 199°
2026-05-08 13:41 49.68301 -3.55403 32808 ft 441 kts 198°
2026-05-08 13:42 49.65349 -3.56672 33117 ft 440 kts 199°
2026-05-08 13:42 49.62403 -3.57959 33458 ft 439 kts 199°
2026-05-08 13:42 49.59468 -3.59248 33788 ft 438 kts 199°
2026-05-08 13:42 49.56569 -3.60522 34085 ft 437 kts 199°
2026-05-08 13:43 49.53648 -3.61805 34356 ft 436 kts 199°
2026-05-08 13:43 49.50725 -3.63087 34628 ft 435 kts 198°
2026-05-08 13:43 49.47812 -3.64364 34876 ft 435 kts 198°
2026-05-08 13:43 49.44899 -3.65639 35003 ft 435 kts 198°
2026-05-08 13:44 49.39080 -3.68181 35012 ft 433 kts 198°
2026-05-08 13:44 49.33290 -3.70705 35010 ft 433 kts 198°
2026-05-08 13:45 49.27526 -3.73211 35010 ft 433 kts 198°
2026-05-08 13:45 49.21718 -3.75730 35010 ft 432 kts 198°
2026-05-08 13:46 49.15921 -3.78238 35005 ft 432 kts 198°
2026-05-08 13:46 49.10132 -3.80736 35005 ft 432 kts 198°
2026-05-08 13:47 49.04347 -3.83227 35002 ft 432 kts 198°
2026-05-08 13:47 48.98557 -3.85714 34997 ft 432 kts 198°
2026-05-08 13:48 48.92765 -3.88196 34993 ft 432 kts 198°
2026-05-08 13:48 48.87013 -3.90654 34982 ft 431 kts 198°
2026-05-08 13:49 48.81229 -3.93121 34973 ft 431 kts 197°
2026-05-08 13:49 48.75442 -3.95582 34969 ft 431 kts 197°
2026-05-08 13:50 48.69696 -3.98021 34965 ft 431 kts 197°
2026-05-08 13:50 48.63906 -4.00472 34966 ft 431 kts 197°
2026-05-08 13:51 48.58126 -4.02914 34963 ft 431 kts 197°
2026-05-08 13:51 48.52334 -4.05354 34967 ft 431 kts 197°
2026-05-08 13:52 48.46579 -4.07773 34960 ft 431 kts 197°
2026-05-08 13:52 48.40806 -4.10194 34963 ft 431 kts 197°
2026-05-08 13:53 48.35025 -4.12613 34963 ft 431 kts 197°
2026-05-08 13:53 48.29248 -4.15024 34964 ft 431 kts 197°
2026-05-08 13:54 48.23482 -4.17425 34964 ft 431 kts 197°
2026-05-08 13:54 48.17704 -4.19826 34963 ft 430 kts 197°
2026-05-08 13:55 48.11939 -4.22215 34965 ft 430 kts 196°
2026-05-08 13:56 48.07338 -4.24118 34969 ft 431 kts 196°
2026-05-08 13:56 48.01567 -4.26501 34968 ft 429 kts 196°
2026-05-08 13:57 47.95838 -4.28860 34967 ft 429 kts 196°
2026-05-08 13:57 47.90072 -4.31229 34963 ft 429 kts 196°
2026-05-08 13:58 47.84308 -4.33591 34964 ft 429 kts 196°
2026-05-08 13:58 47.78548 -4.35947 34960 ft 429 kts 196°
2026-05-08 13:59 47.72826 -4.38281 34957 ft 429 kts 195°
2026-05-08 13:59 47.67076 -4.40622 34951 ft 429 kts 195°
2026-05-08 14:00 47.61317 -4.42961 34947 ft 428 kts 195°
2026-05-08 14:00 47.55559 -4.45294 34948 ft 428 kts 195°
2026-05-08 14:01 47.49810 -4.47619 34946 ft 429 kts 195°
2026-05-08 14:01 47.44053 -4.49941 34942 ft 429 kts 195°
2026-05-08 14:02 47.38304 -4.52255 34936 ft 428 kts 195°
2026-05-08 14:02 47.32510 -4.54582 34936 ft 428 kts 195°
2026-05-08 14:03 47.26750 -4.56890 34932 ft 428 kts 195°
2026-05-08 14:03 47.21005 -4.59189 34931 ft 428 kts 195°
2026-05-08 14:04 47.15246 -4.61487 34928 ft 428 kts 195°
2026-05-08 14:04 47.09494 -4.63812 34921 ft 428 kts 198°
2026-05-08 14:05 47.03888 -4.66771 34922 ft 428 kts 199°
2026-05-08 14:05 46.98276 -4.69663 34920 ft 429 kts 198°
2026-05-08 14:06 46.92632 -4.72551 34917 ft 429 kts 198°
2026-05-08 14:06 46.86996 -4.75428 34912 ft 429 kts 198°
2026-05-08 14:07 46.81325 -4.78316 34908 ft 429 kts 198°
2026-05-08 14:07 46.75689 -4.81180 34906 ft 429 kts 198°
2026-05-08 14:08 46.70055 -4.84035 34900 ft 429 kts 198°
2026-05-08 14:08 46.64409 -4.86891 34898 ft 429 kts 198°
2026-05-08 14:09 46.58770 -4.89738 34892 ft 429 kts 198°
2026-05-08 14:09 46.53131 -4.92578 34896 ft 429 kts 198°
2026-05-08 14:10 46.48435 -4.94938 34893 ft 429 kts 198°
2026-05-08 14:10 46.42759 -4.97785 34893 ft 429 kts 198°
2026-05-08 14:11 46.37122 -5.00606 34892 ft 429 kts 198°
2026-05-08 14:11 46.31469 -5.03430 34887 ft 429 kts 197°
2026-05-08 14:12 46.25815 -5.06247 34884 ft 430 kts 197°
2026-05-08 14:12 46.20158 -5.09059 34880 ft 430 kts 197°
2026-05-08 14:13 46.14495 -5.11869 34883 ft 430 kts 197°
2026-05-08 14:13 46.08842 -5.14668 34879 ft 430 kts 197°
2026-05-08 14:14 46.03170 -5.17470 34876 ft 431 kts 197°
2026-05-08 14:14 45.97499 -5.20266 34878 ft 431 kts 197°
2026-05-08 14:15 45.91749 -5.22632 34882 ft 428 kts 188°
2026-05-08 14:15 45.85875 -5.24134 34876 ft 429 kts 188°
2026-05-08 14:16 45.79983 -5.25639 34878 ft 429 kts 188°
2026-05-08 14:16 45.74064 -5.27145 34876 ft 430 kts 188°
2026-05-08 14:17 45.68168 -5.28641 34874 ft 430 kts 188°
2026-05-08 14:17 45.62281 -5.30132 34875 ft 430 kts 188°
2026-05-08 14:18 45.56351 -5.31631 34874 ft 430 kts 188°
2026-05-08 14:18 45.50455 -5.33118 34872 ft 430 kts 187°
2026-05-08 14:19 45.44557 -5.34602 34874 ft 430 kts 187°
2026-05-08 14:19 45.38667 -5.36082 34874 ft 430 kts 187°
2026-05-08 14:20 45.32775 -5.37558 34874 ft 430 kts 187°
2026-05-08 14:20 45.26879 -5.39033 34875 ft 430 kts 187°
2026-05-08 14:21 45.20984 -5.40503 34876 ft 430 kts 187°
2026-05-08 14:21 45.15091 -5.41971 34878 ft 430 kts 187°
2026-05-08 14:22 45.09197 -5.43436 34875 ft 429 kts 187°
2026-05-08 14:22 45.03312 -5.44895 34879 ft 429 kts 187°
2026-05-08 14:23 44.97424 -5.46352 34878 ft 429 kts 187°
2026-05-08 14:23 44.91538 -5.47806 34882 ft 429 kts 187°
2026-05-08 14:24 44.85632 -5.49261 34883 ft 429 kts 187°
2026-05-08 14:24 44.79763 -5.50705 34880 ft 429 kts 187°
2026-05-08 14:25 44.73869 -5.52151 34885 ft 429 kts 186°
2026-05-08 14:25 44.68000 -5.53589 34876 ft 429 kts 186°
2026-05-08 14:26 44.62109 -5.55043 34877 ft 429 kts 189°
2026-05-08 14:26 44.59279 -5.56420 34897 ft 434 kts 201°